Powrót do katalogu

DELTA 1 DEB

AktywnyPO
NORAD 42564·DEBRIS·🇺🇸 United States

Wystrzelony Jul 23, 1972 z Vandenberg Space Force Base

Loading…

Następne Przeloty (najbliższe 24 godziny)

TLE

Starzejące sięSource: Space-Track

Epoka: Sep 10, 2026, 05:33 UTC

1 42564U 72058JX  26253.23142131  .00007088  00000-0  21624-2 0  9998
2 42564  99.0980 233.4103 0061016 271.3103  98.4193 14.41177352655561

Śledź DELTA 1 DEB w czasie rzeczywistym z AllMySat

Download on the App Store